When you browse on this site, cookies collect data to enhance your experience and personalize the content and advertising you see.
Visit our Privacy Policy to learn more. By continuing to use the site, you agree to this use of cookies and data.
  • en Suisse
  • Liste des pays
  • À 7 jours
  • Température de l'eau
  • Carte météo
  • Widgets météo
  • user-avatar
    Se connecter

    Météo par heure à Amvrosievka

    Ce jour, 21 Février, Vendredi

    Heure Température Précipitation Vent Pression Humidité
    00:00 -1°C° 0.1 mm 4 m/s 750 mmHg 98%
    01:00 -1°C° 0 mm 4 m/s 750 mmHg 97%
    02:00 -1°C° 0 mm 4 m/s 750 mmHg 97%
    03:00 -1°C° 0 mm 4 m/s 750 mmHg 96%
    04:00 -1°C° 0.1 mm 4 m/s 750 mmHg 96%
    05:00 -1°C° 0.1 mm 4 m/s 750 mmHg 97%
    06:00 -2°C° 0.1 mm 4 m/s 750 mmHg 98%
    07:00 -2°C° 0.2 mm 5 m/s 750 mmHg 98%
    08:00 -1°C° 0.2 mm 5 m/s 750 mmHg 98%
    09:00 -2°C° 0 mm 5 m/s 750 mmHg 98%
    16:00 0°C° 0.2 mm 3 m/s 749 mmHg 99%
    17:00 0°C° 0.2 mm 3 m/s 749 mmHg 99%
    18:00 0°C° 0.2 mm 3 m/s 749 mmHg 98%
    19:00 0°C° 0.1 mm 3 m/s 750 mmHg 98%
    20:00 -1°C° 0.1 mm 4 m/s 750 mmHg 98%
    21:00 -1°C° 0.1 mm 4 m/s 750 mmHg 98%
    22:00 -1°C° 0 mm 4 m/s 750 mmHg 98%
    23:00 -1°C° 0 mm 4 m/s 750 mmHg 98%

    Demain, 22 Février, Samedi

    Heure Température Précipitation Vent Pression Humidité
    00:00 -1°C° 0 mm 4 m/s 750 mmHg 98%
    01:00 -1°C° 0 mm 4 m/s 751 mmHg 98%
    02:00 -1°C° 0 mm 4 m/s 751 mmHg 98%
    03:00 -1°C° 0 mm 4 m/s 751 mmHg 98%
    04:00 -1°C° 0.1 mm 4 m/s 751 mmHg 98%
    05:00 -1°C° 0.1 mm 4 m/s 751 mmHg 98%
    06:00 -1°C° 0.1 mm 4 m/s 751 mmHg 98%
    07:00 -1°C° 0.1 mm 4 m/s 751 mmHg 98%
    08:00 -1°C° 0.1 mm 4 m/s 752 mmHg 98%
    09:00 -1°C° 0.1 mm 4 m/s 752 mmHg 98%
    10:00 -1°C° 0.1 mm 4 m/s 752 mmHg 99%
    11:00 -1°C° 0.1 mm 4 m/s 752 mmHg 99%
    12:00 -1°C° 0.1 mm 4 m/s 752 mmHg 99%
    13:00 0°C° 0.1 mm 3 m/s 753 mmHg 99%
    14:00 0°C° 0.1 mm 3 m/s 753 mmHg 99%
    15:00 0°C° 0.1 mm 3 m/s 753 mmHg 99%
    16:00 0°C° 0.4 mm 3 m/s 752 mmHg 99%
    17:00 0°C° 0.4 mm 3 m/s 752 mmHg 99%
    18:00 -1°C° 0.4 mm 3 m/s 752 mmHg 99%
    19:00 -1°C° 0.4 mm 2 m/s 752 mmHg 98%
    20:00 -1°C° 0.4 mm 2 m/s 753 mmHg 98%
    21:00 -1°C° 0.4 mm 2 m/s 753 mmHg 98%
    22:00 -1°C° 0.1 mm 2 m/s 752 mmHg 98%
    23:00 +1°C° 0.1 mm 2 m/s 752 mmHg 98%

    Après-demain, 23 Février, Dimanche

    Heure Température Précipitation Vent Pression Humidité
    00:00 +1°C° 0.1 mm 2 m/s 752 mmHg 98%
    01:00 +1°C° 0 mm 2 m/s 752 mmHg 98%
    02:00 +1°C° 0 mm 2 m/s 752 mmHg 98%
    03:00 +1°C° 0 mm 1 m/s 751 mmHg 98%
    04:00 +1°C° 0 mm 1 m/s 751 mmHg 98%
    05:00 +1°C° 0 mm 1 m/s 750 mmHg 98%
    06:00 +1°C° 0 mm 1 m/s 750 mmHg 98%
    07:00 -1°C° 0 mm 2 m/s 750 mmHg 98%
    08:00 -1°C° 0 mm 2 m/s 750 mmHg 97%
    09:00 -1°C° 0 mm 3 m/s 750 mmHg 97%
    10:00 -1°C° 0 mm 4 m/s 750 mmHg 93%
    11:00 -1°C° 0 mm 4 m/s 749 mmHg 90%
    12:00 -1°C° 0 mm 5 m/s 749 mmHg 87%
    13:00 0°C° 0 mm 5 m/s 748 mmHg 86%
    14:00 0°C° 0 mm 5 m/s 748 mmHg 84%
    15:00 0°C° 0 mm 5 m/s 747 mmHg 83%
    16:00 -1°C° 0.1 mm 6 m/s 747 mmHg 86%
    17:00 -1°C° 0.1 mm 6 m/s 746 mmHg 88%
    18:00 -2°C° 0.1 mm 6 m/s 745 mmHg 90%
    19:00 -1°C° 0.3 mm 7 m/s 745 mmHg 92%
    20:00 -1°C° 0.3 mm 8 m/s 745 mmHg 94%
    21:00 -1°C° 0.3 mm 8 m/s 744 mmHg 96%
    22:00 -1°C° 0.4 mm 8 m/s 744 mmHg 96%
    23:00 -1°C° 0.4 mm 7 m/s 743 mmHg 96%

    24 Février, Lundi

    Heure Température Précipitation Vent Pression Humidité
    00:00 -1°C° 0.4 mm 7 m/s 743 mmHg 96%
    01:00 -1°C° 0.2 mm 6 m/s 743 mmHg 96%
    02:00 0°C° 0.2 mm 5 m/s 743 mmHg 96%
    03:00 0°C° 0.2 mm 4 m/s 742 mmHg 96%
    04:00 0°C° 0.3 mm 4 m/s 742 mmHg 96%
    05:00 0°C° 0.3 mm 4 m/s 741 mmHg 97%
    06:00 0°C° 0.3 mm 4 m/s 741 mmHg 97%
    07:00 0°C° 0.1 mm 4 m/s 740 mmHg 97%
    08:00 0°C° 0.1 mm 5 m/s 739 mmHg 97%
    09:00 +1°C° 0.1 mm 6 m/s 738 mmHg 96%
    10:00 0°C° 0.4 mm 7 m/s 737 mmHg 95%
    11:00 0°C° 0.4 mm 9 m/s 736 mmHg 94%
    12:00 +1°C° 0.4 mm 10 m/s 735 mmHg 93%
    13:00 +1°C° 0.7 mm 11 m/s 733 mmHg 94%
    14:00 +1°C° 0.7 mm 11 m/s 732 mmHg 94%
    15:00 0°C° 0.7 mm 12 m/s 730 mmHg 95%
    16:00 +1°C° 1.5 mm 11 m/s 729 mmHg 93%
    17:00 +1°C° 1.5 mm 11 m/s 728 mmHg 92%
    18:00 +2°C° 1.5 mm 10 m/s 727 mmHg 91%
    19:00 +1°C° 0.1 mm 9 m/s 727 mmHg 88%
    20:00 0°C° 0.1 mm 7 m/s 727 mmHg 86%
    21:00 -1°C° 0.1 mm 6 m/s 727 mmHg 83%
    22:00 -1°C° 0.3 mm 6 m/s 727 mmHg 87%
    23:00 0°C° 0.3 mm 5 m/s 728 mmHg 92%

    25 Février, Mardi

    Heure Température Précipitation Vent Pression Humidité
    00:00 -1°C° 0.3 mm 5 m/s 728 mmHg 96%
    01:00 -2°C° 0.1 mm 7 m/s 729 mmHg 95%
    02:00 -3°C° 0.1 mm 9 m/s 731 mmHg 93%
    03:00 -3°C° 0.1 mm 12 m/s 732 mmHg 92%
    04:00 -3°C° 0.1 mm 11 m/s 734 mmHg 88%
    05:00 -3°C° 0.1 mm 11 m/s 735 mmHg 83%
    06:00 -3°C° 0.1 mm 10 m/s 737 mmHg 79%
    07:00 -3°C° 0 mm 10 m/s 739 mmHg 79%
    08:00 -3°C° 0 mm 9 m/s 740 mmHg 80%
    09:00 -4°C° 0 mm 9 m/s 742 mmHg 81%
    10:00 -3°C° 0 mm 9 m/s 743 mmHg 76%
    11:00 -2°C° 0 mm 8 m/s 744 mmHg 72%
    12:00 -1°C° 0 mm 8 m/s 745 mmHg 67%
    13:00 -1°C° 0 mm 8 m/s 745 mmHg 64%
    14:00 0°C° 0 mm 7 m/s 745 mmHg 60%
    15:00 0°C° 0 mm 7 m/s 746 mmHg 57%
    16:00 -1°C° 0 mm 6 m/s 746 mmHg 59%
    17:00 0°C° 0 mm 4 m/s 746 mmHg 61%
    18:00 0°C° 0 mm 3 m/s 746 mmHg 63%
    19:00 0°C° 0 mm 3 m/s 746 mmHg 66%
    20:00 0°C° 0 mm 3 m/s 746 mmHg 69%
    21:00 -1°C° 0 mm 3 m/s 747 mmHg 72%
    22:00 -1°C° 0 mm 3 m/s 747 mmHg 73%
    23:00 -1°C° 0 mm 3 m/s 746 mmHg 74%

    26 Février, Mercredi

    Heure Température Précipitation Vent Pression Humidité
    00:00 -1°C° 0 mm 3 m/s 746 mmHg 74%
    01:00 -1°C° 0 mm 3 m/s 746 mmHg 75%
    02:00 -2°C° 0 mm 4 m/s 746 mmHg 76%
    03:00 -2°C° 0 mm 4 m/s 745 mmHg 77%
    04:00 -1°C° 0 mm 5 m/s 745 mmHg 77%
    05:00 -1°C° 0 mm 5 m/s 744 mmHg 77%
    06:00 -1°C° 0 mm 5 m/s 744 mmHg 77%
    07:00 -1°C° 0 mm 6 m/s 744 mmHg 78%
    08:00 -1°C° 0 mm 7 m/s 744 mmHg 80%
    09:00 0°C° 0 mm 7 m/s 743 mmHg 82%
    10:00 +1°C° 0 mm 8 m/s 743 mmHg 77%
    11:00 +1°C° 0 mm 8 m/s 743 mmHg 73%
    12:00 +2°C° 0 mm 9 m/s 743 mmHg 68%
    13:00 +2°C° 0 mm 9 m/s 742 mmHg 66%
    14:00 +3°C° 0 mm 9 m/s 742 mmHg 64%
    15:00 +3°C° 0 mm 9 m/s 741 mmHg 62%
    16:00 +2°C° 0 mm 8 m/s 741 mmHg 65%
    17:00 +3°C° 0 mm 7 m/s 741 mmHg 69%
    18:00 +2°C° 0 mm 6 m/s 741 mmHg 72%
    19:00 +2°C° 0 mm 6 m/s 741 mmHg 74%
    20:00 +2°C° 0 mm 6 m/s 740 mmHg 77%
    21:00 +2°C° 0 mm 5 m/s 740 mmHg 79%
    22:00 +2°C° 0 mm 5 m/s 740 mmHg 79%
    23:00 +1°C° 0 mm 5 m/s 740 mmHg 79%
    Voir plus